Tracking 19846 objects as of 21-Sep-2019
HD Live streaming from Space Station
objects crossing your sky now

ARIANE 3 DEB (SYLDA)

Track ARIANE 3 DEB (SYLDA) now!


NORAD ID: 15166
Int'l Code: 1984-081D
Perigee: 634.9 km
Apogee: 33,452.3 km
Inclination: 6.8 °
Period: 594.3 minutes
Semi major axis: 23414 km
RCS: 2.1732 m2 (large)
Launch date: August 4, 1984
Source: France (FR)
Launch site: FRENCH GUIANA (FRGUI)

Note: This is SATELLITE DEBRIS
aabbcc
Your satellite tracking list
Your tracking list is empty




NASA's NSSDC Master Catalog

Two Line Element Set (TLE):
1 15166U 84081D   19262.72007424 -.00000352  00000-0 -30762-2 0  9998
2 15166   6.7515 164.6631 7007905 353.4861 129.1018  2.42311513219848
Source of the keplerian elements: AFSPC